| time (UTC) | temp C | wind direction | speed KPH | gust KPH | rain 1hr cm | rain 24hr cm | rain mn cm | humidity % | barometer mb |
| 20260508195354 | 12 | 225 | 20.9 | 35.4 | 0.00 | 0.00 | 0.00 | 32 | 1007.6 |
| 20260508194844 | 12 | 225 | 24.1 | 38.6 | 0.00 | 0.00 | 0.00 | 31 | 1007.7 |
| 20260508194334 | 12 | 225 | 25.7 | 38.6 | 0.00 | 0.00 | 0.00 | 31 | 1007.3 |
| 20260508193824 | 12 | 225 | 27.4 | 38.6 | 0.00 | 0.00 | 0.00 | 30 | 1007.1 |
| 20260508193314 | 12 | 248 | 22.5 | 40.2 | 0.00 | 0.00 | 0.00 | 32 | 1007.3 |
| 20260508192807 | 12 | 225 | 32.2 | 40.2 | 0.00 | 0.00 | 0.00 | 30 | 1007.3 |
| 20260508192257 | 12 | 248 | 27.4 | 43.5 | 0.00 | 0.00 | 0.00 | 29 | 1007.3 |
| 20260508191746 | 13 | 248 | 27.4 | 46.7 | 0.00 | 0.00 | 0.00 | 28 | 1007.4 |
| 20260508191237 | 13 | 248 | 32.2 | 46.7 | 0.00 | 0.00 | 0.00 | 27 | 1007.5 |
| 20260508190728 | 13 | 248 | 32.2 | 43.5 | 0.00 | 0.00 | 0.00 | 27 | 1007.5 |
| 20260508190217 | 13 | 225 | 29.0 | 43.5 | 0.00 | 0.00 | 0.00 | 28 | 1007.3 |
| 20260508185705 | 13 | 225 | 33.8 | 46.7 | 0.00 | 0.00 | 0.00 | 27 | 1007.2 |
| 20260508185156 | 13 | 248 | 35.4 | 48.3 | 0.00 | 0.00 | 0.00 | 27 | 1007.7 |
| 20260508184646 | 13 | 248 | 37.0 | 48.3 | 0.00 | 0.00 | 0.00 | 28 | 1007.4 |
| 20260508184136 | 13 | 225 | 32.2 | 57.9 | 0.00 | 0.00 | 0.00 | 28 | 1007.5 |
| 20260508183625 | 13 | 248 | 37.0 | 57.9 | 0.00 | 0.00 | 0.00 | 29 | 1007.5 |
| 20260508183115 | 13 | 270 | 35.4 | 48.3 | 0.00 | 0.00 | 0.00 | 29 | 1007.6 |
| 20260508182605 | 14 | 248 | 25.7 | 43.5 | 0.00 | 0.00 | 0.00 | 32 | 1007.5 |
| 20260508182055 | 14 | 225 | 22.5 | 46.7 | 0.00 | 0.00 | 0.00 | 31 | 1007.5 |
| 20260508181545 | 13 | 248 | 30.6 | 46.7 | 0.00 | 0.00 | 0.00 | 32 | 1007.6 |
| 20260508181035 | 13 | 248 | 27.4 | 43.5 | 0.00 | 0.00 | 0.00 | 32 | 1007.4 |
| 20260508180525 | 13 | 248 | 33.8 | 43.5 | 0.00 | 0.00 | 0.00 | 33 | 1007.5 |
| 20260508180014 | 13 | 225 | 29.0 | 43.5 | 0.00 | 0.00 | 0.00 | 31 | 1007.6 |
| 20260508175504 | 13 | 225 | 27.4 | 43.5 | 0.00 | 0.00 | 0.00 | 33 | 1007.7 |
| 20260508174954 | 13 | 248 | 30.6 | 46.7 | 0.00 | 0.00 | 0.00 | 32 | 1007.6 |
| 20260508174443 | 13 | 248 | 27.4 | 46.7 | 0.00 | 0.00 | 0.00 | 33 | 1007.7 |
| 20260508173934 | 13 | 248 | 32.2 | 46.7 | 0.00 | 0.00 | 0.00 | 34 | 1007.8 |
| 20260508173424 | 13 | 225 | 37.0 | 48.3 | 0.00 | 0.00 | 0.00 | 33 | 1007.6 |
| 20260508172913 | 13 | 248 | 37.0 | 48.3 | 0.00 | 0.00 | 0.00 | 34 | 1007.8 |
| 20260508172400 | 13 | 248 | 33.8 | 48.3 | 0.00 | 0.00 | 0.00 | 34 | 1007.7 |
| 20260508171850 | 13 | 248 | 33.8 | 43.5 | 0.00 | 0.00 | 0.00 | 34 | 1007.7 |
| 20260508171339 | 13 | 248 | 25.7 | 49.9 | 0.00 | 0.00 | 0.00 | 35 | 1007.8 |
| 20260508170829 | 13 | 248 | 33.8 | 49.9 | 0.00 | 0.00 | 0.00 | 35 | 1008.4 |
| 20260508170319 | 13 | 248 | 30.6 | 48.3 | 0.00 | 0.00 | 0.00 | 38 | 1008.2 |
| 20260508165809 | 13 | 248 | 33.8 | 49.9 | 0.00 | 0.00 | 0.00 | 38 | 1008.4 |
| 20260508165259 | 13 | 225 | 27.4 | 49.9 | 0.00 | 0.00 | 0.00 | 38 | 1008.3 |
| 20260508164748 | 13 | 225 | 27.4 | 43.5 | 0.00 | 0.00 | 0.00 | 36 | 1008.4 |
| 20260508164238 | 13 | 248 | 33.8 | 46.7 | 0.00 | 0.00 | 0.00 | 37 | 1008.3 |
| 20260508163728 | 13 | 225 | 29.0 | 46.7 | 0.00 | 0.00 | 0.00 | 37 | 1008.3 |
| 20260508163218 | 13 | 248 | 29.0 | 43.5 | 0.00 | 0.00 | 0.00 | 37 | 1008.2 |
| 20260508162709 | 13 | 248 | 27.4 | 43.5 | 0.00 | 0.00 | 0.00 | 38 | 1008.3 |
| 20260508162158 | 13 | 248 | 33.8 | 48.3 | 0.00 | 0.00 | 0.00 | 37 | 1008.3 |
| 20260508161647 | 14 | 248 | 33.8 | 48.3 | 0.00 | 0.00 | 0.00 | 36 | 1008.7 |
| 20260508161138 | 13 | 248 | 29.0 | 51.5 | 0.00 | 0.00 | 0.00 | 38 | 1008.9 |
| 20260508160628 | 13 | 248 | 38.6 | 51.5 | 0.00 | 0.00 | 0.00 | 37 | 1008.6 |
| 20260508160118 | 12 | 225 | 37.0 | 48.3 | 0.00 | 0.00 | 0.00 | 39 | 1008.5 |
| 20260508155607 | 13 | 225 | 37.0 | 49.9 | 0.00 | 0.00 | 0.00 | 40 | 1008.8 |
| 20260508155057 | 12 | 248 | 32.2 | 49.9 | 0.00 | 0.00 | 0.00 | 40 | 1008.8 |
| 20260508154547 | 12 | 248 | 33.8 | 48.3 | 0.00 | 0.00 | 0.00 | 40 | 1008.8 |
| 20260508154037 | 12 | 248 | 38.6 | 48.3 | 0.00 | 0.00 | 0.00 | 40 | 1008.9 |
| 20260508153526 | 13 | 248 | 29.0 | 48.3 | 0.00 | 0.00 | 0.00 | 41 | 1009.1 |
| 20260508153016 | 12 | 225 | 33.8 | 48.3 | 0.00 | 0.00 | 0.00 | 40 | 1009.1 |
| 20260508152508 | 12 | 248 | 30.6 | 51.5 | 0.00 | 0.00 | 0.00 | 41 | 1009.0 |
| 20260508151956 | 12 | 225 | 27.4 | 51.5 | 0.00 | 0.00 | 0.00 | 42 | 1009.1 |
| 20260508151446 | 12 | 225 | 27.4 | 49.9 | 0.00 | 0.00 | 0.00 | 42 | 1009.2 |
| 20260508150936 | 12 | 225 | 41.8 | 49.9 | 0.00 | 0.00 | 0.00 | 42 | 1009.2 |
| 20260508150426 | 12 | 225 | 35.4 | 46.7 | 0.00 | 0.00 | 0.00 | 42 | 1009.2 |
| 20260508145916 | 11 | 203 | 37.0 | 46.7 | 0.00 | 0.00 | 0.00 | 43 | 1009.1 |
| 20260508145406 | 11 | 225 | 33.8 | 48.3 | 0.00 | 0.00 | 0.00 | 44 | 1009.5 |
| 20260508144855 | 11 | 225 | 37.0 | 51.5 | 0.00 | 0.00 | 0.00 | 43 | 1009.4 |
| 20260508144345 | 12 | 248 | 37.0 | 51.5 | 0.00 | 0.00 | 0.00 | 43 | 1009.3 |
| 20260508143835 | 11 | 225 | 37.0 | 43.5 | 0.00 | 0.00 | 0.00 | 45 | 1009.4 |
| 20260508143324 | 11 | 225 | 37.0 | 49.9 | 0.00 | 0.00 | 0.00 | 45 | 1009.6 |
| 20260508142814 | 11 | 203 | 33.8 | 49.9 | 0.00 | 0.00 | 0.00 | 46 | 1009.8 |
| 20260508142306 | 11 | 225 | 35.4 | 48.3 | 0.00 | 0.00 | 0.00 | 46 | 1009.4 |
| 20260508141754 | 11 | 248 | 35.4 | 51.5 | 0.00 | 0.00 | 0.00 | 46 | 1009.7 |
| 20260508141247 | 10 | 248 | 38.6 | 51.5 | 0.00 | 0.00 | 0.00 | 47 | 1009.6 |
| 20260508140737 | 10 | 225 | 37.0 | 49.9 | 0.00 | 0.00 | 0.00 | 47 | 1009.7 |
| 20260508140227 | 10 | 225 | 37.0 | 54.7 | 0.00 | 0.00 | 0.00 | 47 | 1009.8 |
| 20260508135718 | 10 | 225 | 37.0 | 57.9 | 0.00 | 0.00 | 0.00 | 46 | 1009.9 |
| 20260508135207 | 10 | 225 | 38.6 | 57.9 | 0.00 | 0.00 | 0.00 | 47 | 1009.9 |
| 20260508134657 | 10 | 225 | 35.4 | 57.9 | 0.00 | 0.00 | 0.00 | 47 | 1010.0 |
| 20260508134147 | 10 | 203 | 40.2 | 57.9 | 0.00 | 0.00 | 0.00 | 47 | 1009.7 |
| 20260508133637 | 10 | 203 | 33.8 | 51.5 | 0.00 | 0.00 | 0.00 | 47 | 1010.0 |
| 20260508133127 | 10 | 225 | 40.2 | 54.7 | 0.00 | 0.00 | 0.00 | 47 | 1010.1 |
| 20260508132618 | 10 | 225 | 41.8 | 54.7 | 0.00 | 0.00 | 0.00 | 47 | 1009.9 |
| 20260508132108 | 10 | 248 | 33.8 | 49.9 | 0.00 | 0.00 | 0.00 | 48 | 1010.0 |
| 20260508131556 | 10 | 225 | 35.4 | 54.7 | 0.00 | 0.00 | 0.00 | 48 | 1010.0 |
| 20260508131045 | 9 | 225 | 40.2 | 54.7 | 0.00 | 0.00 | 0.00 | 49 | 1010.0 |
| 20260508130541 | 9 | 225 | 37.0 | 54.7 | 0.00 | 0.00 | 0.00 | 50 | 1009.6 |
| 20260508130034 | 9 | 225 | 32.2 | 46.7 | 0.00 | 0.00 | 0.00 | 50 | 1009.6 |
| 20260508125516 | 9 | 225 | 33.8 | 46.7 | 0.00 | 0.00 | 0.00 | 50 | 1009.7 |
| 20260508125005 | 8 | 203 | 33.8 | 49.9 | 0.00 | 0.00 | 0.00 | 50 | 1009.5 |
| 20260508124455 | 8 | 203 | 35.4 | 49.9 | 0.00 | 0.00 | 0.00 | 52 | 1009.7 |
| 20260508123945 | 8 | 225 | 29.0 | 46.7 | 0.00 | 0.00 | 0.00 | 53 | 1009.4 |
| 20260508123435 | 8 | 225 | 33.8 | 43.5 | 0.00 | 0.00 | 0.00 | 54 | 1009.3 |
| 20260508122924 | 8 | 225 | 30.6 | 43.5 | 0.00 | 0.00 | 0.00 | 55 | 1009.4 |
| 20260508122415 | 8 | 248 | 24.1 | 46.7 | 0.00 | 0.00 | 0.00 | 57 | 1009.3 |
| 20260508121904 | 7 | 203 | 33.8 | 46.7 | 0.00 | 0.00 | 0.00 | 56 | 1009.1 |
| 20260508121353 | 7 | 225 | 27.4 | 43.5 | 0.00 | 0.00 | 0.00 | 58 | 1009.3 |
| 20260508120844 | 7 | 225 | 25.7 | 43.5 | 0.00 | 0.00 | 0.00 | 59 | 1009.1 |
| 20260508120331 | 7 | 225 | 27.4 | 37.0 | 0.00 | 0.00 | 0.00 | 59 | 1009.2 |
| 20260508115821 | 7 | 225 | 25.7 | 38.6 | 0.00 | 0.00 | 0.00 | 60 | 1009.1 |
| 20260508115310 | 7 | 248 | 25.7 | 38.6 | 0.00 | 0.00 | 0.00 | 60 | 1009.3 |
| 20260508114800 | 7 | 203 | 24.1 | 35.4 | 0.00 | 0.00 | 0.00 | 61 | 1009.3 |
| 20260508114252 | 7 | 225 | 24.1 | 35.4 | 0.00 | 0.00 | 0.00 | 61 | 1009.1 |
| 20260508113740 | 7 | 248 | 29.0 | 37.0 | 0.00 | 0.00 | 0.00 | 61 | 1009.4 |
| 20260508113230 | 7 | 225 | 24.1 | 37.0 | 0.00 | 0.00 | 0.00 | 62 | 1009.1 |
| 20260508112721 | 7 | 225 | 27.4 | 37.0 | 0.00 | 0.00 | 0.00 | 62 | 1008.8 |
| 20260508112209 | 6 | 225 | 20.9 | 37.0 | 0.00 | 0.00 | 0.00 | 63 | 1009.1 |
| 20260508111700 | 6 | 225 | 25.7 | 33.8 | 0.00 | 0.00 | 0.00 | 63 | 1009.0 |
| 20260508111149 | 6 | 248 | 24.1 | 37.0 | 0.00 | 0.00 | 0.00 | 64 | 1008.8 |
| 20260508110639 | 6 | 225 | 24.1 | 40.2 | 0.00 | 0.00 | 0.00 | 64 | 1008.9 |
| 20260508110129 | 6 | 225 | 27.4 | 40.2 | 0.00 | 0.00 | 0.00 | 63 | 1008.8 |
| 20260508105619 | 7 | 225 | 27.4 | 38.6 | 0.00 | 0.00 | 0.00 | 63 | 1008.7 |
| 20260508104604 | 7 | 225 | 27.4 | 40.2 | 0.00 | 0.00 | 0.00 | 64 | 1008.8 |
| 20260508104049 | 6 | 225 | 27.4 | 40.2 | 0.00 | 0.00 | 0.00 | 64 | 1008.8 |
| 20260508103539 | 7 | 225 | 32.2 | 40.2 | 0.00 | 0.00 | 0.00 | 63 | 1008.7 |
| 20260508103028 | 6 | 225 | 29.0 | 40.2 | 0.00 | 0.00 | 0.00 | 63 | 1008.6 |
| 20260508102518 | 6 | 225 | 27.4 | 38.6 | 0.00 | 0.00 | 0.00 | 64 | 1008.5 |
| 20260508102008 | 6 | 225 | 29.0 | 37.0 | 0.00 | 0.00 | 0.00 | 63 | 1008.3 |
| 20260508101457 | 6 | 225 | 24.1 | 43.5 | 0.00 | 0.00 | 0.00 | 64 | 1008.6 |
| 20260508100947 | 6 | 225 | 25.7 | 43.5 | 0.00 | 0.00 | 0.00 | 63 | 1008.4 |
| 20260508100437 | 7 | 225 | 29.0 | 40.2 | 0.00 | 0.00 | 0.00 | 62 | 1008.2 |
| 20260508095927 | 7 | 225 | 27.4 | 40.2 | 0.00 | 0.00 | 0.00 | 62 | 1008.2 |
| 20260508095418 | 7 | 203 | 27.4 | 40.2 | 0.00 | 0.00 | 0.00 | 62 | 1005.6 |
| 20260508094908 | 7 | 248 | 27.4 | 40.2 | 0.00 | 0.00 | 0.00 | 62 | 1008.2 |
| 20260508094357 | 7 | 225 | 27.4 | 40.2 | 0.00 | 0.00 | 0.00 | 61 | 1008.3 |
| 20260508093846 | 7 | 248 | 24.1 | 38.6 | 0.00 | 0.00 | 0.00 | 62 | 1008.0 |
| 20260508093336 | 7 | 248 | 24.1 | 38.6 | 0.00 | 0.00 | 0.00 | 61 | 1008.3 |
| 20260508092826 | 7 | 225 | 29.0 | 38.6 | 0.00 | 0.00 | 0.00 | 61 | 1008.0 |
| 20260508092316 | 7 | 248 | 25.7 | 38.6 | 0.00 | 0.00 | 0.00 | 62 | 1008.1 |
| 20260508091806 | 6 | 248 | 27.4 | 37.0 | 0.00 | 0.00 | 0.00 | 62 | 1008.0 |
| 20260508091256 | 6 | 248 | 27.4 | 37.0 | 0.00 | 0.00 | 0.00 | 63 | 1008.0 |
| 20260508090746 | 6 | 248 | 24.1 | 33.8 | 0.00 | 0.00 | 0.00 | 64 | 1007.9 |
| 20260508090236 | 6 | 225 | 20.9 | 33.8 | 0.00 | 0.00 | 0.00 | 64 | 1008.1 |
| 20260508085726 | 6 | 225 | 24.1 | 35.4 | 0.00 | 0.00 | 0.00 | 63 | 1007.8 |
| 20260508085220 | 6 | 225 | 24.1 | 35.4 | 0.00 | 0.00 | 0.00 | 62 | 1007.8 |
| 20260508084709 | 6 | 248 | 22.5 | 33.8 | 0.00 | 0.00 | 0.00 | 63 | 1007.7 |
| 20260508084159 | 7 | 248 | 20.9 | 35.4 | 0.00 | 0.00 | 0.00 | 63 | 1007.7 |
| 20260508083648 | 7 | 248 | 22.5 | 35.4 | 0.00 | 0.00 | 0.00 | 62 | 1007.7 |
| 20260508083139 | 7 | 248 | 24.1 | 33.8 | 0.00 | 0.00 | 0.00 | 62 | 1007.8 |
| 20260508082628 | 7 | 248 | 24.1 | 33.8 | 0.00 | 0.00 | 0.00 | 62 | 1007.5 |
| 20260508082119 | 6 | 248 | 22.5 | 32.2 | 0.00 | 0.00 | 0.00 | 63 | 1007.7 |
| 20260508081608 | 6 | 225 | 24.1 | 29.0 | 0.00 | 0.00 | 0.00 | 64 | 1007.5 |
| 20260508081057 | 6 | 225 | 17.7 | 29.0 | 0.00 | 0.00 | 0.00 | 65 | 1007.5 |
| 20260508080548 | 6 | 203 | 20.9 | 29.0 | 0.00 | 0.00 | 0.00 | 64 | 1007.9 |
| 20260508080051 | 6 | 225 | 17.7 | 27.4 | 0.00 | 0.00 | 0.00 | 64 | 1007.4 |
| 20260508075528 | 6 | 248 | 16.1 | 27.4 | 0.00 | 0.00 | 0.00 | 65 | 1007.6 |
| 20260508075020 | 6 | 225 | 19.3 | 24.1 | 0.00 | 0.00 | 0.00 | 64 | 1007.5 |
| 20260508074506 | 6 | 225 | 17.7 | 25.7 | 0.00 | 0.00 | 0.00 | 65 | 1007.5 |
| 20260508073957 | 6 | 248 | 16.1 | 25.7 | 0.00 | 0.00 | 0.00 | 65 | 1007.4 |
| 20260508073447 | 6 | 225 | 17.7 | 25.7 | 0.00 | 0.00 | 0.00 | 65 | 1007.7 |
| 20260508072937 | 6 | 248 | 16.1 | 27.4 | 0.00 | 0.00 | 0.00 | 65 | 1007.6 |
| 20260508072426 | 6 | 248 | 22.5 | 32.2 | 0.00 | 0.00 | 0.00 | 63 | 1007.3 |
| 20260508072142 | 6 | 248 | 24.1 | 33.8 | 0.00 | 0.00 | 0.00 | 63 | 1007.5 |
| 20260508071406 | 6 | 225 | 22.5 | 33.8 | 0.00 | 0.00 | 0.00 | 63 | 1007.7 |
| 20260508070856 | 6 | 225 | 24.1 | 33.8 | 0.00 | 0.00 | 0.00 | 62 | 1007.8 |
| 20260508070346 | 7 | 225 | 27.4 | 33.8 | 0.00 | 0.00 | 0.00 | 61 | 1007.7 |
| 20260508065836 | 7 | 248 | 22.5 | 33.8 | 0.00 | 0.00 | 0.00 | 62 | 1007.8 |
| 20260508065325 | 7 | 225 | 24.1 | 37.0 | 0.00 | 0.00 | 0.00 | 61 | 1007.6 |
| 20260508064816 | 7 | 248 | 27.4 | 37.0 | 0.00 | 0.00 | 0.00 | 61 | 1007.7 |
| 20260508064305 | 7 | 248 | 25.7 | 33.8 | 0.00 | 0.00 | 0.00 | 61 | 1007.6 |
| 20260508063755 | 7 | 248 | 24.1 | 33.8 | 0.00 | 0.00 | 0.00 | 62 | 1007.6 |
| 20260508063245 | 6 | 225 | 22.5 | 33.8 | 0.00 | 0.00 | 0.00 | 63 | 1007.6 |
| 20260508062747 | 6 | 248 | 24.1 | 33.8 | 0.00 | 0.00 | 0.00 | 63 | 1007.6 |
| 20260508062224 | 6 | 248 | 24.1 | 35.4 | 0.00 | 0.00 | 0.00 | 64 | 1007.6 |
| 20260508061714 | 6 | 225 | 22.5 | 35.4 | 0.00 | 0.00 | 0.00 | 63 | 1007.7 |
| 20260508061217 | 6 | 248 | 27.4 | 32.2 | 0.00 | 0.00 | 0.00 | 63 | 1007.6 |
| 20260508060655 | 6 | 248 | 24.1 | 32.2 | 0.00 | 0.00 | 0.00 | 64 | 1007.9 |
| 20260508060144 | 6 | 225 | 22.5 | 32.2 | 0.00 | 0.00 | 0.00 | 65 | 1007.9 |
| 20260508055634 | 6 | 248 | 17.7 | 24.1 | 0.00 | 0.00 | 0.00 | 65 | 1008.0 |
| 20260508055124 | 6 | 225 | 17.7 | 24.1 | 0.00 | 0.00 | 0.00 | 66 | 1008.1 |
| 20260508054614 | 6 | 248 | 16.1 | 29.0 | 0.00 | 0.00 | 0.00 | 67 | 1007.9 |
| 20260508054103 | 6 | 225 | 17.7 | 29.0 | 0.00 | 0.00 | 0.00 | 65 | 1008.2 |
| 20260508053553 | 6 | 270 | 17.7 | 24.1 | 0.00 | 0.00 | 0.00 | 67 | 1008.1 |
| 20260508053047 | 6 | 225 | 19.3 | 22.5 | 0.00 | 0.00 | 0.00 | 68 | 1007.8 |
| 20260508052533 | 6 | 225 | 14.5 | 24.1 | 0.00 | 0.00 | 0.00 | 69 | 1008.0 |
| 20260508052027 | 6 | 248 | 17.7 | 24.1 | 0.00 | 0.00 | 0.00 | 69 | 1008.1 |
| 20260508051522 | 6 | 248 | 17.7 | 22.5 | 0.00 | 0.00 | 0.00 | 70 | 1008.1 |
| 20260508051003 | 6 | 225 | 14.5 | 20.9 | 0.00 | 0.00 | 0.00 | 72 | 1007.9 |
| 20260508050452 | 6 | 248 | 12.9 | 20.9 | 0.00 | 0.00 | 0.00 | 72 | 1008.0 |
| 20260508045943 | 6 | 248 | 12.9 | 20.9 | 0.00 | 0.00 | 0.00 | 73 | 1008.1 |
| 20260508045432 | 6 | 248 | 12.9 | 22.5 | 0.00 | 0.00 | 0.00 | 73 | 1008.0 |
| 20260508044922 | 6 | 248 | 12.9 | 22.5 | 0.00 | 0.00 | 0.00 | 73 | 1008.0 |
| 20260508044413 | 6 | 225 | 16.1 | 25.7 | 0.00 | 0.00 | 0.00 | 74 | 1007.9 |
| 20260508043902 | 6 | 225 | 16.1 | 25.7 | 0.00 | 0.00 | 0.00 | 74 | 1007.9 |
| 20260508043351 | 7 | 248 | 17.7 | 27.4 | 0.00 | 0.00 | 0.00 | 74 | 1008.0 |
| 20260508042841 | 6 | 225 | 16.1 | 27.4 | 0.00 | 0.00 | 0.00 | 76 | 1008.2 |
| 20260508042332 | 7 | 248 | 17.7 | 27.4 | 0.00 | 0.00 | 0.00 | 75 | 1008.0 |
| 20260508041823 | 7 | 225 | 17.7 | 27.4 | 0.00 | 0.00 | 0.00 | 75 | 1008.1 |
| 20260508041314 | 7 | 225 | 22.5 | 27.4 | 0.00 | 0.00 | 0.00 | 75 | 1007.9 |
| 20260508040801 | 7 | 225 | 22.5 | 25.7 | 0.00 | 0.00 | 0.00 | 76 | 1008.0 |
| 20260508040250 | 7 | 225 | 20.9 | 29.0 | 0.00 | 0.00 | 0.00 | 78 | 1008.0 |
| 20260508035744 | 7 | 225 | 17.7 | 29.0 | 0.00 | 0.00 | 0.00 | 78 | 1007.8 |
| 20260508035231 | 7 | 225 | 20.9 | 32.2 | 0.00 | 0.00 | 0.00 | 77 | 1008.0 |
| 20260508034721 | 7 | 225 | 19.3 | 32.2 | 0.00 | 0.00 | 0.00 | 77 | 1007.8 |
| 20260508034211 | 7 | 225 | 19.3 | 27.4 | 0.00 | 0.00 | 0.00 | 78 | 1008.0 |
| 20260508033701 | 7 | 225 | 20.9 | 32.2 | 0.00 | 0.00 | 0.00 | 79 | 1007.9 |
| 20260508033150 | 7 | 248 | 19.3 | 32.2 | 0.00 | 0.00 | 0.00 | 79 | 1007.8 |
| 20260508032640 | 7 | 248 | 19.3 | 25.7 | 0.00 | 0.00 | 0.00 | 79 | 1007.9 |
| 20260508032130 | 7 | 225 | 17.7 | 25.7 | 0.00 | 0.00 | 0.00 | 80 | 1007.9 |
| 20260508031620 | 7 | 248 | 17.7 | 24.1 | 0.00 | 0.00 | 0.00 | 81 | 1007.7 |
| 20260508031109 | 7 | 248 | 17.7 | 24.1 | 0.00 | 0.00 | 0.00 | 81 | 1007.7 |
| 20260508030612 | 7 | 248 | 16.1 | 24.1 | 0.00 | 0.00 | 0.00 | 80 | 1007.8 |
| 20260508025539 | 7 | 248 | 16.1 | 22.5 | 0.00 | 0.00 | 0.00 | 82 | 1007.6 |
| 20260508025034 | 7 | 248 | 12.9 | 20.9 | 0.00 | 0.00 | 0.00 | 82 | 1007.7 |
| 20260508024520 | 7 | 248 | 12.9 | 17.7 | 0.00 | 0.00 | 0.00 | 83 | 1007.9 |
| 20260508024009 | 6 | 248 | 9.7 | 14.5 | 0.00 | 0.00 | 0.00 | 85 | 1007.9 |
| 20260508023459 | 6 | 248 | 11.3 | 14.5 | 0.00 | 0.00 | 0.00 | 84 | 1007.8 |
| 20260508022949 | 6 | 225 | 9.7 | 12.9 | 0.00 | 0.00 | 0.00 | 85 | 1007.9 |
| 20260508022438 | 6 | 248 | 8.0 | 12.9 | 0.00 | 0.00 | 0.00 | 85 | 1007.6 |
| 20260508021929 | 6 | 248 | 8.0 | 12.9 | 0.00 | 0.00 | 0.00 | 85 | 1007.5 |
| 20260508021420 | 6 | 248 | 6.4 | 11.3 | 0.00 | 0.00 | 0.00 | 86 | 1007.6 |
| 20260508020908 | 6 | 248 | 6.4 | 12.9 | 0.00 | 0.00 | 0.00 | 85 | 1007.7 |
| 20260508020357 | 6 | 248 | 6.4 | 12.9 | 0.00 | 0.00 | 0.00 | 84 | 1007.5 |
| 20260508015848 | 7 | 248 | 6.4 | 11.3 | 0.00 | 0.00 | 0.00 | 84 | 1007.6 |
| 20260508015337 | 7 | 248 | 6.4 | 9.7 | 0.00 | 0.00 | 0.00 | 85 | 1007.4 |
| 20260508014827 | 6 | 225 | 6.4 | 11.3 | 0.00 | 0.00 | 0.00 | 86 | 1007.3 |
| 20260508014319 | 6 | 270 | 4.8 | 11.3 | 0.00 | 0.00 | 0.00 | 87 | 1007.4 |
| 20260508013257 | 6 | 270 | 3.2 | 6.4 | 0.00 | 0.00 | 0.00 | 86 | 1007.5 |
| 20260508012752 | 6 | 270 | 3.2 | 9.7 | 0.00 | 0.00 | 0.00 | 85 | 1007.4 |
| 20260508012236 | 6 | 270 | 3.2 | 9.7 | 0.00 | 0.00 | 0.00 | 84 | 1007.5 |
| 20260508011726 | 7 | 248 | 4.8 | 6.4 | 0.00 | 0.00 | 0.00 | 84 | 1007.2 |
| 20260508011216 | 8 | 248 | 3.2 | 6.4 | 0.00 | 0.00 | 0.00 | 83 | 1007.4 |
| 20260508010706 | 8 | 248 | 3.2 | 6.4 | 0.00 | 0.00 | 0.00 | 82 | 1007.6 |
| 20260508010157 | 9 | 248 | 4.8 | 11.3 | 0.00 | 0.00 | 0.00 | 80 | 1007.6 |
| 20260508005656 | 9 | 248 | 4.8 | 11.3 | 0.00 | 0.00 | 0.00 | 80 | 1007.6 |
| 20260508005135 | 10 | 248 | 6.4 | 9.7 | 0.00 | 0.00 | 0.00 | 79 | 1007.7 |
| 20260508004626 | 10 | 248 | 6.4 | 6.4 | 0.00 | 0.00 | 0.00 | 80 | 1007.6 |
| 20260508004115 | 10 | 225 | 4.8 | 6.4 | 0.00 | 0.00 | 0.00 | 78 | 1007.5 |
| 20260508003607 | 10 | 225 | 6.4 | 9.7 | 0.00 | 0.00 | 0.00 | 77 | 1007.7 |
| 20260508003055 | 11 | 225 | 6.4 | 14.5 | 0.00 | 0.00 | 0.00 | 76 | 1007.9 |
| 20260508002545 | 11 | 225 | 6.4 | 14.5 | 0.00 | 0.00 | 0.00 | 75 | 1007.9 |
| 20260508002035 | 11 | 203 | 8.0 | 14.5 | 0.00 | 0.00 | 0.00 | 74 | 1007.6 |
| 20260508001529 | 11 | 248 | 9.7 | 14.5 | 0.00 | 0.00 | 0.00 | 74 | 1007.8 |
| 20260508000504 | 11 | 225 | 9.7 | 17.7 | 0.00 | 0.00 | 0.00 | 74 | 1007.8 |
| 20260507235955 | 11 | 225 | 9.7 | 12.9 | 0.00 | 0.00 | 0.00 | 74 | 1007.8 |
| 20260507235444 | 11 | 225 | 9.7 | 17.7 | 0.00 | 0.00 | 0.00 | 73 | 1007.5 |
| 20260507234933 | 11 | 225 | 8.0 | 17.7 | 0.00 | 0.00 | 0.00 | 74 | 1007.6 |
| 20260507234424 | 11 | 203 | 12.9 | 17.7 | 0.00 | 0.00 | 0.00 | 73 | 1007.3 |
| 20260507233914 | 11 | 203 | 8.0 | 17.7 | 0.00 | 0.00 | 0.00 | 74 | 1007.3 |
| 20260507233404 | 11 | 225 | 9.7 | 17.7 | 0.00 | 0.00 | 0.00 | 73 | 1007.4 |
| 20260507232854 | 11 | 225 | 14.5 | 24.1 | 0.00 | 0.00 | 0.00 | 73 | 1007.3 |
| 20260507232343 | 11 | 203 | 12.9 | 24.1 | 0.00 | 0.00 | 0.00 | 72 | 1007.0 |
| 20260507231833 | 12 | 203 | 16.1 | 25.7 | 0.00 | 0.00 | 0.00 | 71 | 1006.8 |
| 20260507231324 | 12 | 203 | 17.7 | 25.7 | 0.00 | 0.00 | 0.00 | 70 | 1006.7 |
| 20260507230813 | 12 | 203 | 16.1 | 29.0 | 0.00 | 0.00 | 0.00 | 70 | 1007.0 |
| 20260507230302 | 12 | 203 | 17.7 | 29.0 | 0.00 | 0.00 | 0.00 | 70 | 1007.0 |
| 20260507225753 | 12 | 203 | 20.9 | 35.4 | 0.00 | 0.00 | 0.00 | 70 | 1006.6 |
| 20260507225242 | 12 | 203 | 17.7 | 38.6 | 0.00 | 0.00 | 0.00 | 69 | 1006.7 |
| 20260507224732 | 12 | 203 | 27.4 | 38.6 | 0.00 | 0.00 | 0.00 | 68 | 1006.5 |
| 20260507224225 | 12 | 203 | 29.0 | 38.6 | 0.00 | 0.00 | 0.00 | 67 | 1006.5 |
| 20260507223711 | 12 | 203 | 20.9 | 32.2 | 0.00 | 0.00 | 0.00 | 67 | 1006.5 |
| 20260507223202 | 12 | 203 | 19.3 | 29.0 | 0.00 | 0.00 | 0.00 | 67 | 1006.4 |
| 20260507222651 | 12 | 203 | 17.7 | 27.4 | 0.00 | 0.00 | 0.00 | 66 | 1006.2 |
| 20260507222141 | 12 | 225 | 19.3 | 29.0 | 0.00 | 0.00 | 0.00 | 66 | 1006.1 |
| 20260507221631 | 12 | 203 | 17.7 | 29.0 | 0.00 | 0.00 | 0.00 | 65 | 1006.0 |
| 20260507221123 | 12 | 225 | 17.7 | 29.0 | 0.00 | 0.00 | 0.00 | 65 | 1006.0 |
| 20260507220611 | 12 | 225 | 20.9 | 29.0 | 0.00 | 0.00 | 0.00 | 64 | 1005.6 |
| 20260507215551 | 12 | 203 | 24.1 | 33.8 | 0.00 | 0.00 | 0.00 | 63 | 1005.7 |
| 20260507215040 | 12 | 203 | 24.1 | 33.8 | 0.00 | 0.00 | 0.00 | 63 | 1005.7 |
| 20260507214530 | 12 | 203 | 20.9 | 33.8 | 0.00 | 0.00 | 0.00 | 63 | 1005.5 |
| 20260507214030 | 13 | 225 | 19.3 | 38.6 | 0.00 | 0.00 | 0.00 | 62 | 1005.4 |
| 20260507213510 | 13 | 203 | 27.4 | 38.6 | 0.00 | 0.00 | 0.00 | 61 | 1005.4 |
| 20260507213000 | 13 | 225 | 27.4 | 38.6 | 0.00 | 0.00 | 0.00 | 61 | 1005.5 |
| 20260507212450 | 13 | 203 | 25.7 | 38.6 | 0.00 | 0.00 | 0.00 | 61 | 1005.3 |
| 20260507211940 | 13 | 225 | 27.4 | 43.5 | 0.00 | 0.00 | 0.00 | 60 | 1005.3 |
| 20260507211430 | 13 | 203 | 30.6 | 46.7 | 0.00 | 0.00 | 0.00 | 59 | 1005.2 |
| 20260507210922 | 14 | 225 | 35.4 | 48.3 | 0.00 | 0.00 | 0.00 | 58 | 1005.3 |
| 20260507210409 | 14 | 203 | 33.8 | 48.3 | 0.00 | 0.00 | 0.00 | 57 | 1005.3 |
| 20260507205858 | 15 | 203 | 33.8 | 51.5 | 0.00 | 0.00 | 0.00 | 57 | 1005.4 |
| 20260507205351 | 15 | 225 | 35.4 | 54.7 | 0.00 | 0.00 | 0.00 | 57 | 1005.6 |
| 20260507204839 | 15 | 225 | 40.2 | 54.7 | 0.00 | 0.00 | 0.00 | 57 | 1005.8 |
| 20260507204328 | 15 | 248 | 41.8 | 49.9 | 0.00 | 0.00 | 0.00 | 57 | 1005.7 |
| 20260507203819 | 15 | 203 | 32.2 | 43.5 | 0.00 | 0.00 | 0.00 | 58 | 1005.5 |
| 20260507203308 | 15 | 225 | 33.8 | 51.5 | 0.00 | 0.00 | 0.00 | 57 | 1005.3 |
| 20260507202758 | 15 | 225 | 30.6 | 54.7 | 0.00 | 0.00 | 0.00 | 57 | 1005.2 |
| 20260507202249 | 15 | 248 | 38.6 | 54.7 | 0.00 | 0.00 | 0.00 | 57 | 1005.3 |
| 20260507201738 | 15 | 225 | 37.0 | 54.7 | 0.00 | 0.00 | 0.00 | 56 | 1005.3 |
| 20260507201228 | 15 | 225 | 37.0 | 54.7 | 0.00 | 0.00 | 0.00 | 57 | 1005.0 |
| 20260507200720 | 15 | 225 | 27.4 | 49.9 | 0.00 | 0.00 | 0.00 | 57 | 1005.0 |
| 20260507200208 | 15 | 225 | 37.0 | 51.5 | 0.00 | 0.00 | 0.00 | 58 | 1004.9 |
| 20260507195657 | 15 | 225 | 32.2 | 51.5 | 0.00 | 0.00 | 0.00 | 58 | 1004.8 |